Weather History for Meridian, MS

Change the Weather History Date:

Friday, February 15, 2013

  Actual Average Record
Temperature  
Mean Temperature 47 °F 49 °F  
Max Temperature 64 °F 61 °F 84 °F (1989)
Min Temperature 30 °F 36 °F 18 °F (1943)
Degree Days  
Heating Degree Days 18 16  
Month to date heating degree days 230 269  
Since 1 July heating degree days 1663 1906  
Cooling Degree Days 0 0  
Month to date cooling degree days 0 0  
Year to date cooling degree days 16 3  
Moisture  
Dew Point 35 °F    
Average Humidity 71    
Maximum Humidity 100    
Minimum Humidity 42    
Precipitation  
Precipitation 0.00 in 0.21 in 7.48 in (1990)
Month to date precipitation 6.73 3.06  
Year to date precipitation 16.49 8.19  
Sea Level Pressure  
Sea Level Pressure 30.13 in    
Wind  
Wind Speed 5 mph (NW)    
Max Wind Speed 18 mph    
Max Gust Speed 24 mph    
Visibility 9 miles    
Events      
T = Trace of Precipitation, MM = Missing Value Source: NWS Daily Summary

Daily Weather History Graph

Daily Weather History Graph

Search for Another Location

Airport:

Trip Planner

Search our weather history database for the weather conditions in past years. The results will help you decide how hot, cold, wet, or windy it might be!

Date:

Astronomy

Feb. 15, 2013 Rise Set
Actual Time 6:37 AM CST 5:41 PM CST
Civil Twilight 6:12 AM CST 6:06 PM CST
Nautical Twilight 5:43 AM CST 6:35 PM CST
Astronomical Twilight 5:15 AM CST 7:03 PM CST
Moon 9:35 AM CST (2/15) 11:17 PM CST (2/15)
Length of Visible Light 11h 54m
Length of Day
11h 03m
Waxing Crescent, 30% of the Moon is Illuminated
Feb 15
Waxing Crescent
Feb 17
First Quarter
Feb 25
Full
Mar 4
Last Quarter
Mar 11
New

Hourly Weather History & Observations

Time (CST) Temp. Windchill Dew Point Humidity Pressure Visibility Wind Dir Wind Speed Gust Speed Precip Events Conditions
12:58 AM 35.1 °F - 33.1 °F 92% 30.11 in 10.0 mi Calm Calm - N/A   Clear
1:58 AM 34.0 °F - 33.1 °F 96% 30.11 in 10.0 mi Calm Calm - N/A   Clear
2:58 AM 33.1 °F - 32.0 °F 96% 30.13 in 10.0 mi Calm Calm - N/A   Clear
3:58 AM 32.0 °F - 30.9 °F 96% 30.13 in 10.0 mi Calm Calm - N/A   Clear
4:58 AM 32.0 °F - 30.9 °F 96% 30.13 in 10.0 mi Calm Calm - N/A   Clear
5:14 AM 30.2 °F - 30.2 °F 100% 30.13 in 8.0 mi Calm Calm - N/A   Clear
5:58 AM 30.9 °F 27.5 °F 30.0 °F 96% 30.14 in 10.0 mi South 3.5 mph - N/A   Clear
6:15 AM 32.0 °F - 30.2 °F 93% 30.14 in 6.0 mi Calm Calm - N/A   Partly Cloudy
6:58 AM 30.9 °F 27.5 °F 30.9 °F 100% 30.16 in 9.0 mi South 3.5 mph - N/A   Clear
7:06 AM 30.2 °F - 30.2 °F 100% 30.16 in 2.5 mi Calm Calm - N/A   Partly Cloudy
7:20 AM 32.0 °F - 32.0 °F 100% 30.16 in 6.0 mi Calm Calm - N/A   Clear
7:58 AM 36.0 °F 33.3 °F 35.1 °F 97% 30.17 in 10.0 mi South 3.5 mph - N/A   Clear
8:58 AM 44.1 °F - 41.0 °F 89% 30.17 in 10.0 mi Calm Calm - N/A   Clear
9:58 AM 54.0 °F - 41.0 °F 62% 30.17 in 10.0 mi Variable 4.6 mph - N/A   Clear
10:58 AM 57.9 °F - 37.9 °F 47% 30.17 in 10.0 mi Variable 3.5 mph - N/A   Clear
11:58 AM 61.0 °F - 37.0 °F 41% 30.13 in 10.0 mi NW 5.8 mph - N/A   Clear
12:58 PM 60.1 °F - 37.0 °F 42% 30.10 in 10.0 mi Calm Calm - N/A   Clear
1:58 PM 60.1 °F - 37.0 °F 42% 30.08 in 10.0 mi NW 8.1 mph - N/A   Scattered Clouds
2:58 PM 62.1 °F - 39.0 °F 43% 30.07 in 10.0 mi NNW 11.5 mph - N/A   Mostly Cloudy
3:58 PM 61.0 °F - 37.9 °F 42% 30.07 in 10.0 mi NW 8.1 mph - N/A   Clear
4:58 PM 59.0 °F - 37.0 °F 44% 30.07 in 10.0 mi NW 11.5 mph - N/A   Partly Cloudy
5:58 PM 53.1 °F - 39.0 °F 59% 30.08 in 10.0 mi West 3.5 mph - N/A   Partly Cloudy
6:58 PM 51.1 °F - 37.9 °F 61% 30.11 in 10.0 mi NW 6.9 mph - N/A   Clear
7:58 PM 50.0 °F - 37.9 °F 63% 30.13 in 10.0 mi NW 5.8 mph - N/A   Overcast
8:58 PM 50.0 °F - 36.0 °F 59% 30.15 in 10.0 mi NW 8.1 mph - N/A   Overcast
9:58 PM 48.9 °F - 33.1 °F 54% 30.15 in 10.0 mi NNW 11.5 mph - N/A   Overcast
10:58 PM 48.0 °F - 32.0 °F 54% 30.15 in 10.0 mi NNW 8.1 mph - N/A   Overcast
11:58 PM 46.9 °F - 32.0 °F 56% 30.14 in 10.0 mi NNW 8.1 mph - N/A   Overcast